TimeCDT,TemperatureF,Dew PointF,Humidity,Sea Level PressureIn,VisibilityMPH,Wind Direction,Wind SpeedMPH,Gust SpeedMPH,PrecipitationIn,Events,Conditions,WindDirDegrees,DateUTC
12:56 AM,82.9,72.0,69,29.95,10.0,SSW,6.9,-,N/A,,Mostly Cloudy,210,2013-07-11 05:56:00
1:56 AM,82.9,73.0,72,29.97,10.0,NNE,9.2,-,N/A,,Overcast,20,2013-07-11 06:56:00
2:56 AM,84.0,72.0,67,29.97,10.0,NW,4.6,-,N/A,,Clear,320,2013-07-11 07:56:00
3:56 AM,82.9,72.0,69,29.96,10.0,SW,4.6,-,N/A,,Partly Cloudy,220,2013-07-11 08:56:00
4:56 AM,81.0,73.0,77,29.95,10.0,SW,5.8,-,N/A,,Scattered Clouds,220,2013-07-11 09:56:00
5:56 AM,80.1,73.0,79,29.96,10.0,South,3.5,-,N/A,,Overcast,190,2013-07-11 10:56:00
6:56 AM,80.1,73.0,79,29.96,10.0,Calm,Calm,-,N/A,,Overcast,0,2013-07-11 11:56:00
7:56 AM,80.1,73.0,79,29.96,10.0,SW,8.1,-,N/A,,Overcast,230,2013-07-11 12:56:00
8:56 AM,82.0,73.9,76,29.97,10.0,SW,5.8,-,N/A,,Mostly Cloudy,220,2013-07-11 13:56:00
9:56 AM,84.0,73.9,72,29.99,10.0,Variable,4.6,-,N/A,,Overcast,0,2013-07-11 14:56:00
10:56 AM,84.9,75.0,72,29.98,10.0,SW,3.5,-,0.00,Rain,Light Rain,220,2013-07-11 15:56:00
11:56 AM,86.0,75.0,70,29.97,10.0,Calm,Calm,-,0.00,Rain,Light Rain,0,2013-07-11 16:56:00
12:56 PM,87.1,75.9,69,29.97,10.0,South,5.8,-,0.00,,Overcast,170,2013-07-11 17:56:00
1:56 PM,89.1,77.0,67,29.95,10.0,SSE,10.4,-,N/A,,Overcast,160,2013-07-11 18:56:00
2:56 PM,91.0,75.9,61,29.92,10.0,South,6.9,-,N/A,,Mostly Cloudy,170,2013-07-11 19:56:00
3:56 PM,93.0,73.9,54,29.89,10.0,WSW,4.6,-,N/A,,Mostly Cloudy,250,2013-07-11 20:56:00
4:56 PM,93.9,75.0,54,29.89,10.0,Variable,4.6,-,N/A,,Mostly Cloudy,0,2013-07-11 21:56:00
5:56 PM,91.0,75.0,59,29.89,10.0,South,5.8,-,N/A,,Mostly Cloudy,170,2013-07-11 22:56:00
6:50 PM,89.6,75.2,62,29.91,10.0,SW,4.6,-,N/A,Thunderstorm,Thunderstorm,230,2013-07-11 23:50:00
6:56 PM,89.1,75.9,65,29.90,10.0,WSW,5.8,-,N/A,Thunderstorm,Thunderstorm,250,2013-07-11 23:56:00
7:44 PM,82.4,71.6,70,29.91,10.0,West,10.4,-,N/A,,Mostly Cloudy,270,2013-07-12 00:44:00
7:56 PM,82.0,71.1,69,29.89,10.0,WSW,3.5,-,N/A,,Mostly Cloudy,250,2013-07-12 00:56:00
8:56 PM,80.1,69.1,69,29.90,10.0,Calm,Calm,-,N/A,,Mostly Cloudy,0,2013-07-12 01:56:00
9:31 PM,78.8,69.8,74,29.99,10.0,East,27.6,41.4,N/A,,Mostly Cloudy,80,2013-07-12 02:31:00
9:56 PM,75.9,66.9,74,29.96,10.0,SE,12.7,26.5,N/A,,Overcast,130,2013-07-12 02:56:00
10:56 PM,75.0,66.0,73,29.92,10.0,Calm,Calm,-,N/A,,Mostly Cloudy,0,2013-07-12 03:56:00
11:56 PM,75.9,66.0,71,29.92,10.0,Calm,Calm,-,N/A,,Mostly Cloudy,0,2013-07-12 04:56:00